Retour au catalogue

SICRAL 1

ActifMilitaireGEO
NORAD 26694·PAYLOAD·🇮🇹 Italy

Lancé Feb 7, 2001 depuis Guiana Space Centre

Loading…

TLE

FraisSource: Mike McCants

Époque: Sep 15, 2026, 05:29 UTC

1 26694U 01005A   26258.22883027  .00000000  00000-0  00000-0 0    01
2 26694  12.3588  29.6871 0006244 163.6546 196.3776  0.98735103  5309

Suivez SICRAL 1 en temps réel avec AllMySat

Download on the App Store